Lexington, KY

6:50 PM EST on February 17, 2018 (GMT -0500)
Blue Grass

Weather History for KLEX - August, 2013

Change the Weather History Date:

Monday, August 5, 2013

  Actual Average Record
Temperature  
Mean Temperature 70 °F 76 °F  
Max Temperature 83 °F 86 °F 98 °F (2002)
Min Temperature 56 °F 66 °F 51 °F (1912)
Degree Days  
Heating Degree Days 0 0  
Month to date heating degree days 0 0  
Since 1 June heating degree days 0 11  
Since 1 July heating degree days 0 0  
Cooling Degree Days 5 11  
Month to date cooling degree days 38 55  
Year to date cooling degree days 761 751  
Since 1 June cooling degree days 608 644  
Growing Degree Days 18 (Base 50)    
Moisture  
Dew Point 56 °F    
Average Humidity 62    
Maximum Humidity 87    
Minimum Humidity 37    
Precipitation  
Precipitation 0.00 in 0.11 in 1.52 in (1995)
Month to date precipitation T 0.60  
Year to date precipitation 38.50 29.02  
Snow  
Snow 0.00 in 0.00 in - ()
Month to date snowfall 0.0 0.0  
Since 1 June snowfall 0.0 0.0  
Since 1 July snowfall 0.0 0.0  
Snow Depth 0.00 in    
Sea Level Pressure  
Sea Level Pressure 30.06 in    
Wind  
Wind Speed 3 mph (East)    
Max Wind Speed 9 mph    
Max Gust Speed 13 mph    
Visibility 10 miles    
Events Rain    
T = Trace of Precipitation, MM = Missing Value Source: NWS Daily Summary

Daily Weather History Graph

Daily Weather History Graph

Search for Another Location

Airport or City:

Trip Planner

Search our weather history database for the weather conditions in past years. The results will help you decide how hot, cold, wet, or windy it might be!

Date:

Astronomy

Aug. 05, 2013 Rise Set
Actual Time 6:45 AM EDT 8:43 PM EDT
Civil Twilight 6:16 AM EDT 9:12 PM EDT
Nautical Twilight 5:40 AM EDT 9:47 PM EDT
Astronomical Twilight 5:03 AM EDT 10:24 PM EDT
Moon 5:39 AM EDT (8/5) 7:43 PM EDT (8/5)
Length of Visible Light 14h 55m
Length of Day
13h 58m
Waning Crescent, 1% of the Moon is Illuminated
Aug 5
Waning Crescent
Aug 6
New
Aug 14
First Quarter
Aug 20
Full
Aug 28
Last Quarter

Hourly Weather History & Observations

Time (EDT) Temp. Heat Index Dew Point Humidity Pressure Visibility Wind Dir Wind Speed Gust Speed Precip Events Conditions
12:54 AM 61.0 °F - 55.9 °F 83% 30.12 in 10.0 mi Calm Calm - N/A   Clear
1:54 AM 62.1 °F - 55.9 °F 80% 30.11 in 10.0 mi ENE 3.5 mph - N/A   Clear
2:54 AM 59.0 °F - 55.9 °F 90% 30.10 in 10.0 mi Calm Calm - N/A   Clear
3:54 AM 59.0 °F - 55.9 °F 90% 30.10 in 10.0 mi Calm Calm - N/A   Clear
4:54 AM 59.0 °F - 54.0 °F 83% 30.09 in 10.0 mi Calm Calm - N/A   Clear
5:54 AM 60.1 °F - 53.1 °F 78% 30.10 in 10.0 mi East 4.6 mph - N/A   Clear
6:54 AM 57.9 °F - 53.1 °F 84% 30.10 in 10.0 mi Calm Calm - N/A   Clear
7:24 AM 57.9 °F - 54.0 °F 87% 30.12 in 10.0 mi Calm Calm - N/A   Partly Cloudy
7:54 AM 60.1 °F - 55.0 °F 83% 30.11 in 10.0 mi Calm Calm - 0.00 in   Clear
8:54 AM 68.0 °F - 57.0 °F 68% 30.11 in 10.0 mi ESE 3.5 mph - N/A   Clear
9:54 AM 72.0 °F - 57.0 °F 59% 30.11 in 10.0 mi SSE 3.5 mph - 0.00 in   Clear
10:54 AM 73.9 °F - 55.0 °F 52% 30.11 in 10.0 mi Variable 3.5 mph - N/A   Clear
11:54 AM 75.9 °F - 55.0 °F 48% 30.09 in 10.0 mi ESE 6.9 mph - 0.00 in Rain Light Rain
12:54 PM 78.1 °F - 54.0 °F 43% 30.07 in 10.0 mi ESE 8.1 mph - 0.00 in   Partly Cloudy
1:54 PM 79.0 °F - 53.1 °F 40% 30.06 in 10.0 mi North - - N/A   Clear
2:54 PM 80.1 °F 80.0 °F 54.0 °F 40% 30.05 in 10.0 mi Calm Calm - N/A   Clear
3:54 PM 82.0 °F 81.3 °F 54.0 °F 38% 30.03 in 10.0 mi Calm Calm - N/A   Scattered Clouds
4:54 PM 81.0 °F 80.8 °F 55.9 °F 42% 30.03 in 10.0 mi NNW 9.2 mph - N/A   Mostly Cloudy
5:54 PM 79.0 °F - 55.0 °F 44% 30.02 in 10.0 mi Calm Calm - N/A   Clear
6:54 PM 79.0 °F - 57.0 °F 47% 30.00 in 10.0 mi NE 5.8 mph - N/A   Scattered Clouds
7:54 PM 77.0 °F - 57.0 °F 50% 29.98 in 10.0 mi ENE 5.8 mph - N/A   Clear
8:54 PM 75.0 °F - 57.0 °F 53% 29.97 in 10.0 mi Calm Calm - N/A   Partly Cloudy
9:54 PM 73.0 °F - 59.0 °F 61% 29.97 in 10.0 mi Calm Calm - N/A   Overcast
10:54 PM 71.1 °F - 61.0 °F 70% 29.99 in 10.0 mi Calm Calm - N/A   Overcast
11:54 PM 70.0 °F - 63.0 °F 78% 29.99 in 10.0 mi Calm Calm - N/A   Overcast